Location: Abundant Grace Fellowship
(35.0349°N, 90.0924°W)
Time: 22:20:13
(UTC+00:00)

Atlas Centaur 2 - Pass Details

Date: 18 January 2026
Orbit: 456 x 1249 km, 30.4° (Epoch: 11 February)

Event Time Altitude Azimuth Distance (km) Brightness Sun altitude
Exits shadow 10:25:33 35° 132° (SE) 1,191 3.2 -32.7°
Drops below altitude 10° 10:29:45 10° 97° (E) 2,482 5.5 -31.9°
Sets 10:32:45 0° 91° (E) 3,570 6.6 -31.3°
